KC5TIL Weather Reports


Display with metric or nautical units.
time (UTC)temp
F
wind
direction
speed
MPH
gust
MPH
rain 1hr
in
rain 24hr
in
rain mn
in
humidity
%
barometer
mb
20260507202951 71 118 0.0 1.0 0.00 0.00 0.00 52 1017.4
20260507202447 71 32 2.0 2.0 0.00 0.00 0.00 52 1017.2
20260507201943 71 88 2.0 7.0 0.00 0.00 0.00 52 1017.2
20260507201438 71 112 1.0 2.0 0.00 0.00 0.00 52 1017.2
20260507200936 71 359 2.0 3.0 0.00 0.00 0.00 52 1017.3
20260507200431 71 71 2.0 5.0 0.00 0.00 0.00 52 1017.4
20260507195927 72 83 2.0 3.0 0.00 0.00 0.00 51 1017.6
20260507195425 72 149 1.0 1.0 0.00 0.00 0.00 48 1017.8
20260507194922 72 117 1.0 1.0 0.00 0.00 0.00 49 1017.9
20260507194418 71 82 1.0 3.0 0.00 0.00 0.00 49 1018.0
20260507193915 71 98 1.0 2.0 0.00 0.00 0.00 49 1018.1
20260507193412 70 63 1.0 3.0 0.00 0.00 0.00 51 1018.0
20260507192909 71 81 3.0 5.0 0.00 0.00 0.00 49 1018.3
20260507192405 71 66 3.0 5.0 0.00 0.00 0.00 50 1018.5
20260507191902 71 121 2.0 3.0 0.00 0.00 0.00 49 1018.6
20260507191358 71 92 1.0 3.0 0.00 0.00 0.00 51 1018.6
20260507190854 72 171 2.0 2.0 0.00 0.00 0.00 49 1018.8
20260507190353 71 64 1.0 3.0 0.00 0.00 0.00 49 1019.0
20260507185851 71 64 2.0 6.0 0.00 0.00 0.00 50 1018.8
20260507185348 71 53 3.0 8.0 0.00 0.00 0.00 50 1018.8
20260507184845 71 165 3.0 8.0 0.00 0.00 0.00 48 1018.7
20260507184343 71 71 1.0 7.0 0.00 0.00 0.00 49 1018.8
20260507183839 72 9 4.0 8.0 0.00 0.00 0.00 49 1018.9
20260507183337 71 100 3.0 10.0 0.00 0.00 0.00 48 1018.7
20260507182834 71 169 2.0 7.0 0.00 0.00 0.00 51 1018.7
20260507182330 71 73 3.0 7.0 0.00 0.00 0.00 51 1018.9
20260507181826 71 17 5.0 9.0 0.00 0.00 0.00 48 1018.8
20260507181322 70 47 4.0 7.0 0.00 0.00 0.00 49 1019.0
20260507180819 70 59 3.0 6.0 0.00 0.00 0.00 51 1018.9
20260507180316 71 57 3.0 8.0 0.00 0.00 0.00 51 1019.0
20260507175811 70 4 4.0 8.0 0.00 0.00 0.00 51 1019.0
20260507175309 69 66 1.0 5.0 0.00 0.00 0.00 55 1019.2
20260507174806 69 338 6.0 7.0 0.00 0.00 0.00 52 1019.3
20260507174304 70 71 3.0 7.0 0.00 0.00 0.00 53 1019.3
20260507173801 69 237 1.0 3.0 0.00 0.00 0.00 54 1019.5
20260507173258 69 41 6.0 9.0 0.00 0.00 0.00 55 1019.6
20260507172754 68 72 2.0 7.0 0.00 0.00 0.00 57 1019.5
20260507172251 68 72 0.0 5.0 0.00 0.00 0.00 60 1019.6
20260507171747 68 20 5.0 9.0 0.00 0.00 0.00 58 1019.8
20260507171244 68 69 3.0 7.0 0.00 0.00 0.00 58 1019.7
20260507170741 68 127 1.0 6.0 0.00 0.00 0.00 61 1020.1
20260507170238 67 49 3.0 6.0 0.00 0.00 0.00 61 1020.2
20260507165733 67 98 2.0 3.0 0.00 0.00 0.00 59 1020.5
20260507165230 67 58 3.0 7.0 0.00 0.00 0.00 62 1020.7
20260507164726 68 69 2.0 3.0 0.00 0.00 0.00 60 1020.7
20260507164223 67 56 1.0 6.0 0.00 0.00 0.00 62 1020.9
20260507163720 67 77 2.0 5.0 0.00 0.00 0.00 60 1020.9
20260507163218 68 65 1.0 3.0 0.00 0.00 0.00 62 1020.8
20260507162713 67 106 1.0 6.0 0.00 0.00 0.00 62 1020.9
20260507162210 66 62 5.0 6.0 0.00 0.00 0.00 63 1020.9
20260507161706 66 339 4.0 7.0 0.00 0.00 0.00 64 1020.9
20260507161203 66 126 2.0 5.0 0.00 0.00 0.00 64 1020.9
20260507160659 66 43 4.0 5.0 0.00 0.00 0.00 63 1021.2
20260507160156 65 25 3.0 5.0 0.00 0.00 0.00 65 1020.9
20260507155651 65 44 3.0 7.0 0.00 0.00 0.00 65 1020.9
20260507155142 65 72 2.0 5.0 0.00 0.00 0.00 66 1020.7
20260507154638 64 99 1.0 3.0 0.00 0.00 0.00 68 1020.8
20260507154137 64 89 2.0 3.0 0.00 0.00 0.00 66 1020.8
20260507153633 64 100 2.0 3.0 0.00 0.00 0.00 67 1021.0
20260507153129 64 73 1.0 2.0 0.00 0.00 0.00 67 1021.0
20260507152625 64 70 1.0 2.0 0.00 0.00 0.00 69 1021.1
20260507152121 64 70 1.0 5.0 0.00 0.00 0.00 71 1021.2
20260507151617 63 21 1.0 3.0 0.00 0.00 0.00 71 1021.2
20260507151115 63 59 4.0 5.0 0.00 0.00 0.00 70 1021.3
20260507150612 63 107 0.0 2.0 0.00 0.00 0.00 70 1021.4
20260507150108 64 115 1.0 5.0 0.00 0.00 0.00 68 1021.2
20260507145604 63 18 3.0 5.0 0.00 0.00 0.00 68 1021.5
20260507145102 65 154 1.0 2.0 0.00 0.00 0.00 68 1021.3
20260507144557 64 87 2.0 6.0 0.00 0.00 0.00 68 1021.5
20260507144056 63 104 0.0 3.0 0.00 0.00 0.00 70 1021.6
20260507143552 63 38 3.0 3.0 0.00 0.00 0.00 71 1021.6
20260507143050 62 51 1.0 2.0 0.00 0.00 0.00 73 1021.5
20260507142550 62 85 2.0 5.0 0.00 0.00 0.00 73 1021.5
20260507142047 61 99 1.0 3.0 0.00 0.00 0.00 74 1021.6
20260507141543 61 53 3.0 5.0 0.00 0.00 0.00 75 1021.8
20260507141040 61 22 1.0 1.0 0.00 0.00 0.00 76 1021.6
20260507140537 61 123 3.0 5.0 0.00 0.00 0.00 76 1021.8
20260507140034 61 50 2.0 3.0 0.00 0.00 0.00 77 1021.9
20260507135531 60 94 2.0 3.0 0.00 0.00 0.00 77 1021.7
20260507135029 61 45 1.0 5.0 0.00 0.00 0.00 77 1021.8
20260507134525 59 85 1.0 2.0 0.00 0.00 0.00 80 1021.9
20260507134020 59 20 3.0 5.0 0.00 0.00 0.00 81 1021.9
20260507133517 59 9 3.0 5.0 0.00 0.00 0.00 80 1022.0
20260507133015 58 358 2.0 3.0 0.00 0.00 0.00 81 1022.0
20260507132511 58 59 2.0 3.0 0.00 0.00 0.00 82 1022.2
20260507132008 57 268 2.0 3.0 0.00 0.00 0.00 82 1022.1
20260507131505 57 95 0.0 2.0 0.00 0.00 0.00 82 1022.2
20260507131002 58 38 1.0 1.0 0.00 0.00 0.00 82 1022.2
20260507130459 58 125 0.0 1.0 0.00 0.00 0.00 82 1022.1
20260507125957 57 121 0.0 0.0 0.00 0.00 0.00 83 1022.3
20260507125455 57 120 0.0 1.0 0.00 0.00 0.00 83 1022.1
20260507124952 57 118 0.0 0.0 0.00 0.00 0.00 84 1022.4
20260507124448 56 116 0.0 0.0 0.00 0.00 0.00 84 1022.1
20260507123947 56 130 0.0 0.0 0.00 0.00 0.00 85 1022.1
20260507123444 56 127 0.0 1.0 0.00 0.00 0.00 84 1021.9
20260507122940 56 116 0.0 0.0 0.00 0.00 0.00 85 1021.9
20260507122436 56 118 0.0 0.0 0.00 0.00 0.00 86 1021.8
20260507121932 55 111 0.0 1.0 0.00 0.00 0.00 88 1021.9
20260507121427 54 78 1.0 1.0 0.00 0.00 0.00 89 1021.7
20260507120924 54 345 1.0 2.0 0.00 0.00 0.00 90 1021.7
20260507120420 54 152 0.0 1.0 0.00 0.00 0.00 90 1021.9
20260507115917 54 130 0.0 0.0 0.00 0.00 0.00 90 1021.8
20260507115413 54 150 1.0 2.0 0.00 0.00 0.00 90 1022.0
20260507114909 53 240 1.0 2.0 0.00 0.00 0.00 90 1022.0
20260507114406 53 152 0.0 2.0 0.00 0.00 0.00 90 1022.1
20260507113903 53 142 0.0 2.0 0.00 0.00 0.00 90 1022.0
20260507113400 53 169 1.0 1.0 0.00 0.00 0.00 90 1021.7
20260507112857 53 226 1.0 2.0 0.00 0.00 0.00 90 1021.7
20260507112354 53 270 2.0 2.0 0.00 0.00 0.00 90 1021.6
20260507111852 54 268 1.0 3.0 0.00 0.00 0.00 90 1021.5
20260507111349 54 22 1.0 2.0 0.00 0.00 0.00 90 1021.3
20260507110845 54 272 3.0 3.0 0.00 0.00 0.00 90 1021.6
20260507110341 54 319 1.0 2.0 0.00 0.00 0.00 90 1021.4
20260507105838 54 332 2.0 2.0 0.00 0.00 0.00 90 1021.2
20260507105335 54 90 1.0 1.0 0.00 0.00 0.00 91 1021.3
20260507104832 54 286 2.0 2.0 0.00 0.00 0.00 91 1021.3
20260507104328 54 45 0.0 1.0 0.00 0.00 0.00 90 1021.2
20260507103824 54 319 2.0 5.0 0.00 0.00 0.00 91 1021.0
20260507103321 54 327 3.0 3.0 0.00 0.00 0.00 91 1020.9
20260507102817 54 73 1.0 1.0 0.00 0.00 0.00 90 1020.7
20260507102314 54 68 0.0 2.0 0.00 0.00 0.00 90 1020.5
20260507101811 54 275 2.0 2.0 0.00 0.00 0.00 90 1020.6
20260507101310 54 143 0.0 1.0 0.00 0.00 0.00 90 1020.4
20260507100808 55 119 0.0 1.0 0.00 0.00 0.00 90 1020.4
20260507100306 55 108 0.0 1.0 0.00 0.00 0.00 89 1020.5
20260507095804 55 133 0.0 1.0 0.00 0.00 0.00 89 1020.2
20260507095300 55 109 0.0 0.0 0.00 0.00 0.00 88 1020.2
20260507094757 55 105 0.0 0.0 0.00 0.00 0.00 88 1020.3
20260507094254 55 101 0.0 1.0 0.00 0.00 0.00 88 1020.2
20260507093751 55 359 2.0 2.0 0.00 0.00 0.00 88 1020.0
20260507093249 55 86 0.0 2.0 0.00 0.00 0.00 87 1019.8
20260507092747 55 59 0.0 2.0 0.00 0.00 0.00 87 1019.8
20260507092242 55 65 1.0 3.0 0.00 0.00 0.00 87 1019.9
20260507091739 56 76 0.0 2.0 0.00 0.00 0.00 86 1019.8
20260507091236 56 60 1.0 2.0 0.00 0.00 0.00 86 1019.8
20260507090731 56 116 0.0 2.0 0.00 0.00 0.00 86 1019.8
20260507090228 56 14 3.0 3.0 0.00 0.00 0.00 86 1019.6
20260507085725 56 41 3.0 3.0 0.00 0.00 0.00 86 1019.6
20260507085217 56 115 0.0 1.0 0.00 0.00 0.00 86 1019.5
20260507084714 56 16 2.0 3.0 0.00 0.00 0.00 85 1019.3
20260507084210 56 57 1.0 3.0 0.00 0.00 0.00 85 1019.2
20260507083708 56 34 3.0 7.0 0.00 0.00 0.00 85 1019.2
20260507083204 56 87 2.0 3.0 0.00 0.00 0.00 85 1019.2
20260507082659 57 44 2.0 5.0 0.00 0.00 0.00 85 1019.4
20260507082155 57 54 2.0 3.0 0.00 0.00 0.00 85 1019.5
20260507081652 57 25 2.0 2.0 0.00 0.00 0.00 85 1019.7
20260507081143 57 72 1.0 3.0 0.00 0.00 0.00 84 1019.6
20260507080640 57 32 2.0 3.0 0.00 0.00 0.00 84 1019.6
20260507080136 57 11 2.0 3.0 0.00 0.00 0.00 84 1019.7
20260507075631 57 63 1.0 3.0 0.00 0.00 0.00 84 1019.5
20260507075127 57 92 0.0 1.0 0.00 0.00 0.00 84 1019.4
20260507074624 57 83 0.0 5.0 0.00 0.00 0.00 84 1019.5
20260507074123 57 72 1.0 2.0 0.00 0.00 0.00 84 1019.3
20260507073618 57 43 1.0 2.0 0.00 0.00 0.00 84 1019.4
20260507073114 57 46 1.0 5.0 0.00 0.00 0.00 83 1019.3
20260507072613 57 54 1.0 5.0 0.00 0.00 0.00 83 1019.1
20260507072110 57 98 1.0 5.0 0.00 0.00 0.00 84 1018.9
20260507071607 57 135 1.0 3.0 0.00 0.00 0.00 84 1018.9
20260507071103 57 312 2.0 3.0 0.00 0.00 0.00 83 1018.6
20260507070600 58 49 2.0 5.0 0.00 0.00 0.00 84 1018.6
20260507070057 58 352 1.0 2.0 0.00 0.00 0.00 84 1018.6
20260507065553 58 35 3.0 3.0 0.00 0.00 0.00 83 1018.6
20260507065051 58 352 1.0 3.0 0.00 0.00 0.00 83 1018.6
20260507064549 58 59 4.0 7.0 0.00 0.00 0.00 83 1018.6
20260507064047 59 33 3.0 3.0 0.00 0.00 0.00 83 1018.5
20260507063544 59 41 3.0 7.0 0.00 0.00 0.00 83 1018.6
20260507063041 58 93 0.0 6.0 0.00 0.00 0.00 83 1018.8
20260507062537 58 55 1.0 1.0 0.00 0.00 0.00 82 1018.9
20260507062035 59 53 1.0 2.0 0.00 0.00 0.00 82 1018.8
20260507061533 59 88 1.0 5.0 0.00 0.00 0.00 81 1018.6
20260507061031 59 101 0.0 3.0 0.00 0.00 0.00 81 1018.5
20260507060528 59 66 1.0 2.0 0.00 0.00 0.00 80 1018.5
20260507060025 59 92 0.0 7.0 0.00 0.00 0.00 79 1018.5
20260507055520 59 80 2.0 3.0 0.00 0.00 0.00 79 1018.4
20260507055017 60 63 2.0 6.0 0.00 0.00 0.00 79 1018.4
20260507054513 60 63 2.0 5.0 0.00 0.00 0.00 78 1018.7
20260507054010 60 68 2.0 3.0 0.00 0.00 0.00 78 1018.6
20260507053508 60 31 5.0 7.0 0.00 0.00 0.00 78 1018.6
20260507053006 60 52 3.0 6.0 0.00 0.00 0.00 77 1018.5
20260507052504 60 81 3.0 5.0 0.00 0.00 0.00 78 1018.6
20260507052000 60 46 3.0 5.0 0.00 0.00 0.00 78 1018.7
20260507051458 60 52 3.0 6.0 0.00 0.00 0.00 77 1018.6
20260507050954 60 53 1.0 3.0 0.00 0.00 0.00 78 1018.6
20260507050451 60 100 1.0 8.0 0.00 0.00 0.00 78 1018.5
20260507045948 60 42 5.0 7.0 0.00 0.12 0.12 78 1018.4
20260507045444 60 43 2.0 8.0 0.00 0.12 0.12 77 1018.7
20260507044942 60 117 4.0 9.0 0.00 0.12 0.12 77 1018.5
20260507044438 60 77 3.0 6.0 0.00 0.12 0.12 77 1018.7
20260507043934 60 55 3.0 7.0 0.00 0.12 0.12 77 1018.6
20260507043431 60 83 0.0 3.0 0.00 0.12 0.12 77 1018.7
20260507042927 60 54 4.0 8.0 0.00 0.12 0.12 76 1018.8
20260507042424 60 30 1.0 7.0 0.00 0.12 0.12 77 1018.7
20260507041920 60 7 5.0 7.0 0.00 0.12 0.12 76 1018.9
20260507041417 60 83 3.0 6.0 0.00 0.12 0.12 76 1019.0
20260507040914 60 84 1.0 6.0 0.00 0.12 0.12 76 1018.7
20260507040410 61 4 2.0 6.0 0.00 0.12 0.12 76 1018.9
20260507035906 61 98 2.0 5.0 0.00 0.12 0.12 77 1018.8
20260507035402 61 105 3.0 6.0 0.00 0.12 0.12 76 1018.8
20260507034859 61 58 3.0 10.0 0.00 0.12 0.12 75 1019.0
20260507034356 61 39 3.0 8.0 0.00 0.12 0.12 76 1018.9
20260507033854 61 46 5.0 9.0 0.00 0.12 0.12 76 1018.9
20260507033352 61 310 5.0 8.0 0.00 0.12 0.12 76 1018.9
20260507032848 61 33 5.0 9.0 0.00 0.12 0.12 77 1018.7
20260507032345 62 57 3.0 7.0 0.00 0.12 0.12 76 1018.8
20260507031841 61 94 2.0 6.0 0.00 0.12 0.12 77 1018.8
20260507031338 61 79 2.0 7.0 0.00 0.12 0.12 77 1018.6
20260507030835 61 79 1.0 5.0 0.00 0.12 0.12 78 1018.5
20260507030333 62 110 0.0 5.0 0.00 0.12 0.12 78 1018.6
20260507025829 62 78 1.0 3.0 0.00 0.12 0.12 78 1018.8
20260507025326 62 35 3.0 3.0 0.00 0.12 0.12 78 1018.5
20260507024824 62 58 2.0 5.0 0.00 0.12 0.12 78 1018.7
20260507024321 62 51 2.0 6.0 0.00 0.12 0.12 78 1018.4
20260507023817 62 78 1.0 5.0 0.00 0.12 0.12 78 1018.2
20260507023314 62 336 3.0 5.0 0.00 0.12 0.12 78 1018.2
20260507022811 62 70 2.0 5.0 0.00 0.12 0.12 78 1018.0
20260507022307 62 21 2.0 6.0 0.00 0.12 0.12 78 1017.8
20260507021803 62 50 1.0 5.0 0.00 0.12 0.12 79 1017.5
20260507021259 62 1 5.0 7.0 0.00 0.12 0.12 79 1017.5
20260507020757 61 77 3.0 8.0 0.00 0.12 0.12 79 1017.4
20260507020254 61 10 4.0 7.0 0.00 0.12 0.12 80 1017.4
20260507015751 61 25 1.0 3.0 0.00 0.12 0.12 81 1017.1
20260507015248 61 52 2.0 3.0 0.00 0.12 0.12 81 1017.2
20260507014745 61 37 1.0 5.0 0.00 0.12 0.12 80 1017.0
20260507014241 61 79 3.0 3.0 0.00 0.12 0.12 81 1016.9
20260507013738 62 67 3.0 6.0 0.00 0.12 0.12 81 1016.8
20260507013236 62 101 1.0 9.0 0.00 0.12 0.12 80 1016.8
20260507012733 62 55 2.0 6.0 0.00 0.12 0.12 80 1016.5
20260507012228 62 33 6.0 8.0 0.00 0.12 0.12 80 1016.4
20260507011726 62 26 1.0 7.0 0.00 0.12 0.12 80 1016.3
20260507011223 62 98 2.0 6.0 0.00 0.12 0.12 81 1016.2
20260507010722 62 44 1.0 5.0 0.00 0.12 0.12 82 1016.3
20260507010218 62 12 5.0 7.0 0.00 0.12 0.12 83 1016.3
20260507005716 62 351 1.0 2.0 0.00 0.12 0.12 87 1016.1
20260507005212 61 107 0.0 1.0 0.00 0.12 0.12 87 1016.3
20260507004709 61 54 1.0 1.0 0.00 0.12 0.12 87 1016.0
20260507004207 62 85 0.0 2.0 0.00 0.12 0.12 86 1016.0
20260507003703 62 113 1.0 2.0 0.00 0.12 0.12 86 1016.1
20260507003158 62 97 0.0 1.0 0.00 0.12 0.12 86 1016.0
20260507002654 62 104 0.0 1.0 0.00 0.12 0.12 86 1016.1
20260507002150 62 42 3.0 5.0 0.00 0.12 0.12 86 1015.9
20260507001647 62 81 1.0 2.0 0.00 0.12 0.12 86 1015.9
20260507001144 62 73 1.0 2.0 0.00 0.12 0.12 86 1015.9
20260507000641 61 86 2.0 3.0 0.00 0.12 0.12 85 1015.8
20260507000136 61 43 1.0 3.0 0.00 0.12 0.12 86 1015.8
20260506235634 61 81 1.0 3.0 0.00 0.12 0.12 86 1015.7
20260506235134 61 29 0.0 2.0 0.00 0.12 0.12 86 1015.7
20260506234631 61 66 1.0 3.0 0.00 0.12 0.12 85 1015.7
20260506234128 61 79 3.0 3.0 0.00 0.12 0.12 85 1015.7
20260506233625 61 31 3.0 3.0 0.00 0.12 0.12 86 1015.5
20260506233122 61 77 1.0 1.0 0.00 0.12 0.12 86 1015.4
20260506232618 61 58 3.0 5.0 0.00 0.12 0.12 86 1015.5
20260506232114 61 105 0.0 3.0 0.00 0.12 0.12 85 1015.3
20260506231611 61 50 3.0 5.0 0.00 0.12 0.12 83 1015.4
20260506231109 61 67 3.0 5.0 0.00 0.12 0.12 85 1015.5
20260506230606 61 62 3.0 6.0 0.00 0.12 0.12 86 1015.4
20260506230103 60 34 2.0 2.0 0.00 0.12 0.12 87 1015.1
20260506225559 60 56 2.0 3.0 0.00 0.12 0.12 88 1015.1
20260506225056 59 28 1.0 6.0 0.00 0.12 0.12 90 1015.2
20260506224553 60 81 0.0 1.0 0.05 0.12 0.12 88 1015.3
20260506224050 60 64 2.0 3.0 0.31 0.12 0.12 87 1015.3
20260506223545 61 33 2.0 6.0 0.31 0.11 0.11 84 1015.3
20260506223042 62 300 5.0 7.0 0.00 0.06 0.06 77 1015.6
20260506222539 62 311 2.0 6.0 0.00 0.06 0.06 74 1015.5
20260506222035 62 52 2.0 5.0 0.00 0.06 0.06 73 1015.0
20260506221533 62 30 2.0 6.0 0.00 0.06 0.06 73 1015.1
20260506221031 63 341 1.0 5.0 0.00 0.06 0.06 72 1015.0
20260506220526 63 334 5.0 6.0 0.00 0.06 0.06 72 1015.3
20260506220022 63 352 2.0 3.0 0.00 0.06 0.06 73 1015.0
20260506215519 62 97 1.0 6.0 0.00 0.06 0.06 73 1015.2
20260506215015 63 344 4.0 8.0 0.00 0.06 0.06 73 1015.2
20260506214512 63 256 2.0 6.0 0.00 0.06 0.06 72 1015.2
20260506214009 63 72 3.0 6.0 0.00 0.06 0.06 72 1015.1
20260506213507 62 356 6.0 6.0 0.00 0.06 0.06 73 1015.4
20260506213004 62 281 1.0 6.0 0.00 0.06 0.06 73 1015.4
20260506212500 62 348 5.0 6.0 0.00 0.06 0.06 72 1015.4
20260506211955 62 49 1.0 5.0 0.00 0.06 0.06 74 1015.2
20260506211451 62 55 3.0 5.0 0.00 0.06 0.06 72 1015.0
20260506210949 62 67 0.0 3.0 0.00 0.06 0.06 73 1015.2
20260506210445 63 69 1.0 3.0 0.00 0.06 0.06 72 1015.4
20260506205942 62 42 2.0 6.0 0.00 0.06 0.06 73 1015.4
20260506205438 62 59 1.0 5.0 0.00 0.06 0.06 73 1015.4
20260506204934 61 92 2.0 6.0 0.00 0.06 0.06 74 1015.5
20260506204433 61 55 3.0 5.0 0.00 0.06 0.06 74 1015.6
20260506203930 61 106 0.0 2.0 0.00 0.06 0.06 75 1015.5
20260506203427 62 346 4.0 6.0 0.00 0.06 0.06 73 1015.6